| time (UTC) | temp F | wind direction | speed MPH | gust MPH | rain 1hr in | rain 24hr in | rain mn in | humidity % | barometer mb |
| 20260510070048 | 73 | 165 | 0.0 | 3.0 | 0.00 | 0.01 | 0.00 | 79 | 1011.6 |
| 20260510063047 | 75 | 158 | 0.0 | 4.0 | 0.00 | 0.01 | 0.00 | 76 | 1011.5 |
| 20260510060046 | 76 | 141 | 2.0 | 5.0 | 0.00 | 0.01 | 0.00 | 74 | 1011.6 |
| 20260510053046 | 76 | 180 | 1.0 | 5.0 | 0.00 | 0.01 | 0.00 | 74 | 1011.2 |
| 20260510050044 | 77 | 148 | 1.0 | 4.0 | 0.00 | 0.01 | 0.00 | 71 | 1011.2 |
| 20260510043044 | 76 | 182 | 0.0 | 4.0 | 0.00 | 0.01 | 0.01 | 74 | 1010.8 |
| 20260510040043 | 75 | 116 | 0.0 | 0.0 | 0.00 | 0.01 | 0.01 | 74 | 1010.5 |
| 20260510033042 | 78 | 116 | 0.0 | 0.0 | 0.00 | 0.01 | 0.01 | 67 | 1010.3 |
| 20260510030041 | 81 | 116 | 0.0 | 3.0 | 0.00 | 0.01 | 0.01 | 62 | 1010.2 |
| 20260510020039 | 83 | 158 | 0.0 | 9.0 | 0.00 | 0.01 | 0.01 | 54 | 1009.3 |
| 20260510013038 | 85 | 142 | 1.0 | 9.0 | 0.00 | 0.01 | 0.01 | 53 | 1008.9 |
| 20260510003037 | 90 | 56 | 3.0 | 5.0 | 0.00 | 0.01 | 0.01 | 49 | 1008.3 |
| 20260510000036 | 90 | 238 | 3.0 | 9.0 | 0.00 | 0.01 | 0.01 | 48 | 1007.8 |
| 20260509230104 | 94 | 172 | 0.0 | 8.0 | 0.00 | 0.01 | 0.01 | 42 | 1008.4 |
| 20260509213102 | 92 | 138 | 0.0 | 10.0 | 0.00 | 0.01 | 0.01 | 46 | 1008.4 |
| 20260509210101 | 92 | 128 | 4.0 | 11.0 | 0.00 | 0.01 | 0.01 | 46 | 1008.8 |
| 20260509203100 | 91 | 259 | 1.0 | 10.0 | 0.00 | 0.01 | 0.01 | 48 | 1009.1 |
| 20260509200059 | 91 | 291 | 0.0 | 10.0 | 0.00 | 0.01 | 0.01 | 48 | 1009.7 |
| 20260509193058 | 89 | 278 | 0.0 | 12.0 | 0.00 | 0.01 | 0.01 | 51 | 1010.3 |
| 20260509190057 | 89 | 188 | 7.0 | 10.0 | 0.00 | 0.01 | 0.01 | 54 | 1010.5 |
| 20260509183056 | 87 | 231 | 4.0 | 11.0 | 0.00 | 0.01 | 0.01 | 59 | 1010.8 |
| 20260509180056 | 86 | 237 | 2.0 | 10.0 | 0.00 | 0.01 | 0.01 | 64 | 1011.2 |
| 20260509170054 | 82 | 225 | 4.0 | 7.0 | 0.00 | 0.01 | 0.01 | 72 | 1011.5 |
| 20260509163053 | 80 | 259 | 0.0 | 7.0 | 0.00 | 0.01 | 0.01 | 82 | 1011.7 |
| 20260509160052 | 78 | 215 | 0.0 | 7.0 | 0.00 | 0.01 | 0.01 | 85 | 1011.5 |
| 20260509153051 | 76 | 146 | 3.0 | 5.0 | 0.01 | 0.01 | 0.01 | 92 | 1011.8 |
| 20260509150051 | 74 | 78 | 0.0 | 2.0 | 0.01 | 0.01 | 0.01 | 92 | 1012.1 |
| 20260509143049 | 75 | 100 | 0.0 | 3.0 | 0.00 | 0.00 | 0.00 | 91 | 1012.2 |
| 20260509140049 | 73 | 59 | 0.0 | 5.0 | 0.00 | 0.00 | 0.00 | 93 | 1011.7 |
| 20260509130047 | 73 | 167 | 0.0 | 5.0 | 0.00 | 0.00 | 0.00 | 95 | 1011.2 |
| 20260509123046 | 72 | 95 | 0.0 | 7.0 | 0.00 | 0.00 | 0.00 | 96 | 1011.2 |
| 20260509113044 | 72 | 62 | 1.0 | 4.0 | 0.00 | 0.00 | 0.00 | 96 | 1011.1 |
| 20260509110044 | 72 | 70 | 2.0 | 3.0 | 0.00 | 0.00 | 0.00 | 96 | 1010.9 |
| 20260509103042 | 72 | 30 | 2.0 | 5.0 | 0.00 | 0.00 | 0.00 | 96 | 1010.9 |
| 20260509100041 | 72 | 56 | 0.0 | 4.0 | 0.00 | 0.00 | 0.00 | 96 | 1010.8 |
| 20260509093041 | 72 | 64 | 0.0 | 2.0 | 0.00 | 0.00 | 0.00 | 96 | 1009.7 |
| 20260509090040 | 72 | 21 | 0.0 | 0.0 | 0.00 | 0.00 | 0.00 | 95 | 1010.0 |
| 20260509080038 | 72 | 136 | 0.0 | 6.0 | 0.00 | 0.00 | 0.00 | 95 | 1010.4 |
| 20260509073037 | 72 | 132 | 2.0 | 6.0 | 0.00 | 0.00 | 0.00 | 94 | 1010.1 |